ATLAS 5 CENTAUR DEB, 44677

Orbit data source: Space-Track

ATLAS 5 CENTAUR DEB, 44677 is space debris in HEO originally from a launch on Wed, 17 Oct 2018 UTC launched from the Air Force Eastern Test Range (AFETR). Debris objects in space refer to the collection of defunct objects orbiting the Earth. Examples of debris include non-operational satellites, rocket bodies, and fragments generated from explosions, collisions, or faulty payload assembly.

Loading next visibility...
ATLAS 5 CENTAUR DEB details
Identifier
44677, 2018-079AP
Orbit
HEO
Last TLE update8 hours ago
Origin
Flag of USULA (US)
ManufacturerULA Decatur
MissionSpacecraft
Bus & MotorUnknown
MassUnknown
Launch date (UTC)
2018-10-17 (6 years ago)
Launch vehicleUnknown
Launch site
Air Force Eastern Test Range (AFETR)
Object type
Payload
Rocket body
Debris
Shape & HBRUnknown
Radar Cross SectionRCS unknown

Expand to show TLE details & history

TLE from 8 hours ago
0 ATLAS 5 CENTAUR DEB
1 44677U 18079AP  25025.49496330 -.00000098  00000-0  00000-0 0  9993
2 44677  12.1774  95.7576 4476577 193.2181 149.3807  1.78557918 36716
Epoch: 2025-01-25T11:52Z
Definitive object data (Epoch: 2025-01-25T11:52:44.829Z)
Latitude0.00001°
Longitude152.53618°
Altitude34,313.37 km
Speed2.388 km/s
True Right ascension06h 23m 03s
True Declination0° 00' 00"
Sunlit
Object was in daylight at TLE epoch
Visualization TLE readout
Latitude-5.49997°
Longitude-1.12959°
Altitude9,585.568 km
Speed6.004 km/s
Apparent Right ascension19h 39m 22s
Apparent Declination-26° 21' 36"
Sunlit
Object is in daylight
Visualization observer readout
Local Sidereal Time21:16:07
Azimuth202.995° SW
Elevation19.999°
Doppler factor1
Orbital elements
Apogee altitude35,172.615 km
Perigee altitude9,475.223 km
Semi-major axis28,702.056 km
Eccentricity0.4476577
Inclination12.1774°
RAAN95.7576°
Arg. of periapsis193.2181°
True anomaly166.74789°
Mean anomaly149.3807°
Eccentric anomaly158.69837°
Mean motion0.44635 °/min
BSTARUnknown
Orbital period806.55 mins
Loading maneuver chart data...

ATLAS 5 CENTAUR DEB Visibility forecast

Observer location: undefined°, undefined

Span
Click to sort rows by Start time (UTC) header in descending order
Start Az.
Max El. time (UTC)
Max El. Az.
Max El.
End time (UTC)
End Az.
81 mins2025-01-25 19:55:05.929Z202.975° SW2025-01-25 20:04:05.929Z190.583° SSW19.324°2025-01-25 21:16:05.929Z134.841° SE
482 mins2025-01-25 23:43:05.929Z114.305° SE2025-01-26 05:28:05.929Z115.683° SE27.82°2025-01-26 07:45:05.929Z96.869° ESE
|